• In Hungary
  • List of Countries
  • For 7 days
  • Water Temperature
  • Satellite Maps
  • Weather Map
  • News
  • Weather Widgets
  • user-avatar
    Login

    Hourly Weather Gashey

    Today, 24 June, Sunday

    Time Temperature Precipitation Wind Pressure Humidity
    00:00 +14°C° 0 mm 1 mps 687 mmHg 74%
    01:00 +13°C° 0 mm 1 mps 687 mmHg 76%
    02:00 +13°C° 0 mm 1 mps 687 mmHg 79%
    03:00 +12°C° 0 mm 1 mps 687 mmHg 81%
    04:00 +12°C° 0 mm 1 mps 686 mmHg 83%
    05:00 +14°C° 0 mm 2 mps 687 mmHg 74%
    06:00 +16°C° 0 mm 2 mps 687 mmHg 66%
    07:00 +18°C° 0 mm 3 mps 687 mmHg 57%
    08:00 +20°C° 0 mm 4 mps 687 mmHg 52%
    09:00 +21°C° 0 mm 4 mps 687 mmHg 46%
    10:00 +23°C° 0 mm 5 mps 687 mmHg 41%
    11:00 +23°C° 0 mm 5 mps 687 mmHg 40%
    12:00 +23°C° 0 mm 5 mps 687 mmHg 38%
    13:00 +25°C° 0 mm 5 mps 687 mmHg 37%
    14:00 +23°C° 0 mm 5 mps 687 mmHg 39%
    15:00 +23°C° 0 mm 4 mps 687 mmHg 41%
    16:00 +22°C° 0 mm 4 mps 687 mmHg 43%
    17:00 +21°C° 0.1 mm 4 mps 687 mmHg 50%
    18:00 +19°C° 0.1 mm 3 mps 687 mmHg 58%
    19:00 +18°C° 0.1 mm 3 mps 687 mmHg 65%
    20:00 +17°C° 0.2 mm 3 mps 686 mmHg 72%
    21:00 +16°C° 0.2 mm 2 mps 686 mmHg 79%
    22:00 +15°C° 0.2 mm 2 mps 686 mmHg 85%
    23:00 +14°C° 0.1 mm 2 mps 686 mmHg 87%

    Tomorrow, 25 June, Monday

    Time Temperature Precipitation Wind Pressure Humidity
    00:00 +14°C° 0.1 mm 2 mps 686 mmHg 88%
    01:00 +14°C° 0.1 mm 2 mps 686 mmHg 90%
    02:00 +13°C° 0 mm 2 mps 686 mmHg 90%
    03:00 +13°C° 0 mm 2 mps 686 mmHg 91%
    04:00 +13°C° 0 mm 2 mps 686 mmHg 92%
    05:00 +15°C° 0 mm 2 mps 686 mmHg 86%
    06:00 +16°C° 0 mm 3 mps 687 mmHg 80%
    07:00 +17°C° 0 mm 3 mps 687 mmHg 74%
    08:00 +18°C° 0.3 mm 4 mps 687 mmHg 70%
    09:00 +19°C° 0.3 mm 4 mps 687 mmHg 67%
    10:00 +20°C° 0.3 mm 5 mps 687 mmHg 64%
    11:00 +21°C° 0.7 mm 5 mps 687 mmHg 63%
    12:00 +21°C° 0.7 mm 5 mps 687 mmHg 63%
    13:00 +21°C° 0.7 mm 5 mps 687 mmHg 63%
    14:00 +22°C° 0.6 mm 5 mps 687 mmHg 63%
    15:00 +22°C° 0.6 mm 5 mps 687 mmHg 62%
    16:00 +22°C° 0.6 mm 5 mps 688 mmHg 61%
    17:00 +21°C° 0.3 mm 5 mps 688 mmHg 63%
    18:00 +20°C° 0.3 mm 4 mps 688 mmHg 65%
    19:00 +19°C° 0.3 mm 3 mps 688 mmHg 67%
    20:00 +18°C° 0 mm 2 mps 688 mmHg 72%
    21:00 +16°C° 0 mm 2 mps 688 mmHg 77%
    22:00 +15°C° 0 mm 1 mps 688 mmHg 81%
    23:00 +14°C° 0.1 mm 1 mps 688 mmHg 84%

    Day after tomorrow, 26 June, Tuesday

    Time Temperature Precipitation Wind Pressure Humidity
    00:00 +14°C° 0.1 mm 1 mps 688 mmHg 86%
    01:00 +12°C° 0.1 mm 0 mps 688 mmHg 88%
    02:00 +12°C° 0 mm 0 mps 688 mmHg 89%
    03:00 +12°C° 0 mm 0 mps 688 mmHg 90%
    04:00 +11°C° 0 mm 0 mps 689 mmHg 91%
    05:00 +15°C° 0 mm 1 mps 689 mmHg 84%
    06:00 +18°C° 0 mm 1 mps 690 mmHg 77%
    07:00 +19°C° 0 mm 2 mps 690 mmHg 70%
    08:00 +20°C° 0.5 mm 3 mps 690 mmHg 64%
    09:00 +22°C° 0.5 mm 4 mps 690 mmHg 58%
    10:00 +23°C° 0.5 mm 5 mps 690 mmHg 52%
    11:00 +25°C° 0.4 mm 5 mps 690 mmHg 49%
    12:00 +26°C° 0.4 mm 5 mps 690 mmHg 46%
    13:00 +27°C° 0.4 mm 6 mps 690 mmHg 43%
    14:00 +27°C° 0 mm 6 mps 690 mmHg 40%
    15:00 +27°C° 0 mm 6 mps 691 mmHg 37%
    16:00 +27°C° 0 mm 6 mps 691 mmHg 33%
    17:00 +26°C° 0 mm 5 mps 691 mmHg 37%
    18:00 +25°C° 0 mm 4 mps 691 mmHg 41%
    19:00 +24°C° 0 mm 3 mps 691 mmHg 46%
    20:00 +21°C° 0 mm 2 mps 691 mmHg 52%
    21:00 +19°C° 0 mm 2 mps 691 mmHg 58%
    22:00 +18°C° 0 mm 1 mps 691 mmHg 64%
    23:00 +16°C° 0 mm 1 mps 691 mmHg 67%

    27 June, Wednesday

    Time Temperature Precipitation Wind Pressure Humidity
    00:00 +15°C° 0 mm 1 mps 691 mmHg 71%
    01:00 +15°C° 0 mm 1 mps 691 mmHg 74%
    02:00 +14°C° 0 mm 1 mps 691 mmHg 76%
    03:00 +14°C° 0 mm 1 mps 691 mmHg 78%
    04:00 +14°C° 0 mm 1 mps 691 mmHg 80%
    05:00 +16°C° 0 mm 1 mps 691 mmHg 71%
    06:00 +20°C° 0 mm 1 mps 692 mmHg 63%
    07:00 +22°C° 0 mm 1 mps 692 mmHg 54%
    08:00 +24°C° 0 mm 1 mps 692 mmHg 48%
    09:00 +26°C° 0 mm 2 mps 692 mmHg 41%
    10:00 +27°C° 0 mm 3 mps 692 mmHg 35%
    11:00 +28°C° 0 mm 3 mps 692 mmHg 32%
    12:00 +29°C° 0 mm 3 mps 692 mmHg 29%
    13:00 +30°C° 0 mm 3 mps 691 mmHg 26%
    14:00 +31°C° 0 mm 3 mps 691 mmHg 26%
    15:00 +31°C° 0 mm 3 mps 691 mmHg 25%
    16:00 +31°C° 0 mm 3 mps 691 mmHg 25%
    17:00 +30°C° 0 mm 3 mps 691 mmHg 30%
    18:00 +28°C° 0 mm 2 mps 690 mmHg 35%
    19:00 +26°C° 0 mm 2 mps 690 mmHg 41%
    20:00 +24°C° 0 mm 1 mps 690 mmHg 45%
    21:00 +22°C° 0 mm 1 mps 690 mmHg 50%
    22:00 +19°C° 0 mm 1 mps 689 mmHg 55%
    23:00 +19°C° 0 mm 1 mps 689 mmHg 56%

    28 June, Thursday

    Time Temperature Precipitation Wind Pressure Humidity
    00:00 +18°C° 0 mm 1 mps 689 mmHg 58%
    01:00 +15°C° 0 mm 0 mps 689 mmHg 59%
    02:00 +16°C° 0 mm 1 mps 689 mmHg 60%
    03:00 +16°C° 0 mm 1 mps 688 mmHg 61%
    04:00 +15°C° 0 mm 1 mps 688 mmHg 62%
    05:00 +19°C° 0 mm 1 mps 688 mmHg 56%
    06:00 +22°C° 0 mm 1 mps 689 mmHg 49%
    07:00 +24°C° 0 mm 1 mps 689 mmHg 43%
    08:00 +26°C° 0 mm 1 mps 689 mmHg 39%
    09:00 +29°C° 0 mm 2 mps 688 mmHg 35%
    10:00 +31°C° 0 mm 2 mps 688 mmHg 31%
    11:00 +32°C° 0 mm 2 mps 688 mmHg 29%
    12:00 +34°C° 0 mm 2 mps 687 mmHg 27%
    13:00 +35°C° 0 mm 2 mps 687 mmHg 25%
    14:00 +35°C° 0 mm 2 mps 687 mmHg 23%
    15:00 +34°C° 0 mm 1 mps 686 mmHg 22%
    16:00 +34°C° 0 mm 1 mps 686 mmHg 21%
    17:00 +33°C° 0 mm 1 mps 686 mmHg 26%
    18:00 +31°C° 0 mm 1 mps 686 mmHg 32%
    19:00 +27°C° 0 mm 0 mps 685 mmHg 38%
    20:00 +25°C° 0 mm 0 mps 685 mmHg 40%
    21:00 +25°C° 0 mm 1 mps 685 mmHg 43%
    22:00 +22°C° 0 mm 1 mps 685 mmHg 46%
    23:00 +22°C° 0.1 mm 1 mps 684 mmHg 49%

    29 June, Friday

    Time Temperature Precipitation Wind Pressure Humidity
    00:00 +21°C° 0.1 mm 1 mps 684 mmHg 53%
    01:00 +20°C° 0.1 mm 1 mps 684 mmHg 57%
    02:00 +18°C° 0.1 mm 0 mps 684 mmHg 59%
    03:00 +17°C° 0.1 mm 0 mps 684 mmHg 62%
    04:00 +17°C° 0.1 mm 0 mps 684 mmHg 64%
    05:00 +19°C° 0 mm 0 mps 684 mmHg 58%
    06:00 +21°C° 0 mm 0 mps 684 mmHg 52%
    07:00 +24°C° 0 mm 0 mps 684 mmHg 45%
    08:00 +28°C° 0 mm 1 mps 684 mmHg 40%
    09:00 +30°C° 0 mm 1 mps 684 mmHg 34%
    10:00 +32°C° 0 mm 2 mps 684 mmHg 29%
    11:00 +34°C° 0 mm 2 mps 684 mmHg 27%
    12:00 +34°C° 0 mm 2 mps 684 mmHg 26%
    13:00 +35°C° 0 mm 3 mps 683 mmHg 25%
    14:00 +34°C° 0 mm 3 mps 683 mmHg 26%
    15:00 +34°C° 0 mm 3 mps 683 mmHg 28%
    16:00 +33°C° 0 mm 4 mps 683 mmHg 30%
    17:00 +31°C° 0 mm 3 mps 682 mmHg 35%
    18:00 +29°C° 0 mm 3 mps 682 mmHg 40%
    19:00 +27°C° 0 mm 3 mps 682 mmHg 45%
    20:00 +25°C° 0.1 mm 3 mps 682 mmHg 52%
    21:00 +23°C° 0.1 mm 2 mps 682 mmHg 58%
    22:00 +20°C° 0.1 mm 2 mps 682 mmHg 65%
    23:00 +21°C° 0 mm 1 mps 682 mmHg 67%
    Show more